Starlink 32013

operational
NORAD ID: 60103 Int'l Des: 2024-117 Owner: SPXS Country: US Constellation: starlink
LEOCIRCULAR

About Starlink 32013

Description loading...

Live Position

Loading 3D Globe...

Upcoming Passes

Altitude History

Altitude vs Time

uPlot chart will show altitude changes over time

Two-Line Element Set

1 60103U 24117N 25303.25228849 .00000160 00000-0 17536-4 0 9991
2 60103 53.1614 283.1570 0001304 93.9070 266.2080 15.30197007 76914
Epoch: Oct 30, 2025 • Age: 11 hours

Current Status

Altitude 476.0 km
Velocity 7.63 km/s
Sub-Earth Point 26.84°N, 6.24°E
Launch Date Jun 23, 2024
Age 1.3 years
Type internet

Technical Details

Classification Payload
Mass 730.00 kg
Dry Mass 700.00 kg
Total Mass 730.00 kg
Length 0.30 m
Diameter 4.10 m
Span 29.00 m
Shape Box + pan
Manufacturer SPXS
Bus Type Starlink V2M
Phase Status In Orbit
Owner/State SPXS/US

Large Constellations

Loading constellations...